Terminal Aerodrome Forecast
Issued by NWS Cleveland, OH

Home | Current Version | Previous Version | Text Only | Print | Product List | Glossary On
Versions: 1 2 3 4 5 6 7 8 9 10 11 12 13 14 15 16 17 18 19 20 21 22 23 24
000
FTUS41 KCLE 080238 AAB
TAFCLE
TAF AMD
KCLE 080238Z 0803/0906 01012KT P6SM VCSH BKN020
      TEMPO 0803/0805 5SM -SHRA BR BKN008
     FM080500 36008KT 6SM BR OVC015
     FM081600 03011KT P6SM BKN020 OVC050=

USA.gov is the U.S. government's official web portal to all federal, state and local government web resources and services.